Find Starlink 30716

NORAD ID: 57936 Int'l Des: 2023-148 Owner: SPXS Country: US Constellation: starlink operational
LEOCIRCULAR

現在のビュー

3D地球を読み込み中...

About Starlink 30716

Starlink 30716 (NORAD 57936) is a starlink constellation satellite (v2 mini) launched Sep 25, 2023 by SPXS of US. It operates in LEO, CIRCULAR orbit with a mass of 730.00 kg.

Starlink 30716について

説明を読み込み中...

次回通過

Passes for default location (London). Set your location on the main map for personalized predictions.

高度履歴

Loading altitude history...

軌道要素

1 57936U 23148B 26168.52002853 .00006107 00000-0 21839-3 0 9996
2 57936 53.1627 280.7265 0001521 93.9124 266.2051 15.30165194153706
Epoch: Jun 17, 2026 • Age: 21 hours

現在のステータス

高度 480.4 km
速度 7.63 km/s
衛星直下点 51.22°N, 59.75°W
打ち上げ日 Sep 25, 2023
運用期間 2.7 years
タイプ internet

技術仕様

分類 Payload
質量 730.00 kg
乾燥質量 700.00 kg
総質量 730.00 kg
長さ 0.30 m
直径 4.10 m
スパン 29.00 m
形状 Box + pan
製造者 SPXS
バスタイプ Starlink V2M
フェーズステータス In Orbit
所有者/国 SPXS/US

Most Searched